TimePST,TemperatureF,Dew PointF,Humidity,Sea Level PressureIn,VisibilityMPH,Wind Direction,Wind SpeedMPH,Gust SpeedMPH,PrecipitationIn,Events,Conditions,WindDirDegrees,DateUTC
12:53 AM,57.9,44.1,60,30.02,10.0,NW,21.9,27.6,N/A,,Clear,320,2013-01-07 08:53:00
1:53 AM,59.0,44.1,58,30.01,10.0,NW,18.4,-,N/A,,Clear,320,2013-01-07 09:53:00
2:53 AM,59.0,43.0,55,30.03,10.0,NW,19.6,-,N/A,,Clear,320,2013-01-07 10:53:00
3:53 AM,59.0,44.1,58,30.04,10.0,NW,16.1,-,N/A,,Clear,310,2013-01-07 11:53:00
4:53 AM,61.0,43.0,52,30.05,10.0,NW,15.0,-,N/A,,Clear,310,2013-01-07 12:53:00
5:53 AM,56.3,43.0,61,30.06,7.0,NW,19.6,-,N/A,,Clear,320,2013-01-07 13:53:00
6:53 AM,56.1,43.0,61,30.08,7.0,NW,19.6,-,N/A,,Clear,320,2013-01-07 14:53:00
7:53 AM,59.7,44.1,56,30.10,7.0,WNW,13.8,-,N/A,,Clear,300,2013-01-07 15:53:00
8:53 AM,59.7,45.0,58,30.12,7.0,NW,19.6,26.5,N/A,,Clear,320,2013-01-07 16:53:00
9:53 AM,61.5,45.0,55,30.13,7.0,WNW,19.6,-,N/A,,Clear,300,2013-01-07 17:53:00
10:53 AM,63.5,46.0,53,30.12,7.0,NW,20.7,-,N/A,,Partly Cloudy,320,2013-01-07 18:53:00
11:53 AM,63.7,45.0,51,30.09,7.0,WNW,19.6,-,N/A,,Partly Cloudy,290,2013-01-07 19:53:00
12:53 PM,62.1,46.0,56,30.04,7.0,WNW,20.7,-,N/A,,Partly Cloudy,290,2013-01-07 20:53:00
1:53 PM,66.0,46.0,48,30.02,7.0,West,24.2,-,N/A,,Scattered Clouds,280,2013-01-07 21:53:00
2:53 PM,64.0,46.0,52,30.02,7.0,WNW,25.3,34.5,N/A,,Scattered Clouds,290,2013-01-07 22:53:00
3:53 PM,64.0,46.9,54,30.02,7.0,WNW,24.2,28.8,N/A,,Scattered Clouds,300,2013-01-07 23:53:00
4:53 PM,62.1,46.0,56,30.01,10.0,WNW,17.3,-,N/A,,Clear,290,2013-01-08 00:53:00
5:53 PM,60.1,46.9,62,30.03,10.0,WNW,20.7,27.6,N/A,,Clear,300,2013-01-08 01:53:00
6:53 PM,60.1,46.9,62,30.02,10.0,WNW,20.7,-,N/A,,Clear,290,2013-01-08 02:53:00
7:53 PM,61.0,48.0,62,30.02,10.0,WNW,17.3,-,N/A,,Clear,290,2013-01-08 03:53:00
8:53 PM,62.1,48.0,60,30.02,9.0,WNW,17.3,-,N/A,,Clear,290,2013-01-08 04:53:00
9:53 PM,64.9,46.9,52,30.03,10.0,WNW,11.5,-,N/A,,Clear,290,2013-01-08 05:53:00
10:53 PM,63.0,45.0,52,30.04,10.0,WNW,11.5,-,N/A,,Clear,300,2013-01-08 06:53:00
11:53 PM,63.0,44.1,50,30.04,10.0,West,10.4,-,N/A,,Clear,280,2013-01-08 07:53:00